Theta_e
322 322 322 322 322 323 323 324 324 325 325 325 325 326 327 327 326 323 313 325 356 366 366 351 347 339 339 336 339 345 323 313 314 318 321 329 327 328 329 321 325 326 325 324 329
321 321 321 321 322 322 322 323 323 324 324 324 324 325 327 327 321 315 336 361 365 367 346 340 333 339 342 332 334 331 318 318 324 323 323 327 328 327 325 320 322 324 326 329 330
321 321 320 320 320 321 321 322 323 323 323 324 324 326 327 326 310 311 362 366 366 363 345 342 342 344 340 329 331 327 322 327 328 330 330 328 327 330 323 318 322 322 323 327 329
320 319 318 319 319 319 320 321 322 322 322 323 324 326 328 319 300 326 366 365 367 355 350 347 343 338 334 319 327 322 327 329 330 333 331 328 330 326 324 323 327 327 326 328 329
318 317 317 318 319 319 319 320 321 321 322 323 324 327 317 303 307 353 367 366 361 349 340 334 337 334 321 322 326 325 327 330 331 328 329 332 328 327 324 330 330 328 328 328 330
317 318 318 317 318 318 318 319 320 320 321 323 325 328 313 298 318 360 358 355 351 342 332 331 327 327 322 321 322 327 327 325 327 327 331 324 326 329 327 330 328 327 327 329 330
318 318 318 318 318 318 318 318 319 320 321 323 326 327 311 304 328 349 351 345 340 337 326 330 329 322 322 320 331 328 322 322 324 329 328 327 320 322 329 328 326 326 327 329 330
317 317 317 317 317 317 318 318 319 320 322 324 327 318 300 311 316 333 336 331 333 339 331 329 329 325 322 327 326 322 321 311 322 326 328 325 314 325 327 327 325 326 327 328 329
317 317 317 316 316 316 316 317 319 322 324 326 313 308 303 319 312 314 327 321 322 322 327 334 323 320 323 315 311 314 307 311 317 326 324 321 318 327 328 325 323 325 325 326 328
318 317 316 316 316 315 316 317 319 320 323 326 323 305 305 305 309 310 312 318 307 306 308 308 307 304 310 307 299 308 309 311 312 320 322 319 318 324 326 324 322 323 324 325 326
318 317 316 316 316 314 309 309 305 304 313 304 297 306 308 310 310 309 309 308 305 304 298 302 300 299 302 311 310 311 311 311 316 321 319 318 318 322 324 324 322 322 323 324 326
317 317 317 316 315 313 307 310 310 309 302 309 310 310 312 310 308 310 308 304 301 298 299 298 296 303 305 307 307 309 308 310 315 321 318 316 315 319 324 324 324 323 323 324 326
317 316 316 315 313 308 307 310 314 315 300 306 308 309 310 312 308 307 308 302 300 296 297 295 300 305 305 303 310 307 307 309 310 316 315 313 309 319 326 326 325 325 326 326 326
316 316 315 312 309 307 309 315 313 309 298 304 304 310 308 306 302 310 308 305 299 300 297 296 301 302 299 299 304 297 311 314 313 308 303 311 300 313 316 320 322 323 324 326 327
316 315 313 309 306 310 313 313 312 309 289 306 303 309 303 303 301 305 307 304 300 300 298 298 298 298 297 301 308 303 311 313 313 307 299 300 301 308 312 315 320 322 324 326 328
314 313 312 309 306 311 314 311 309 298 292 301 304 301 300 299 302 306 302 304 304 300 297 299 301 300 300 302 306 305 300 297 297 295 290 295 295 295 308 316 320 323 325 326 327
312 310 308 312 310 311 312 309 299 293 304 301 299 299 298 297 299 301 298 296 295 293 291 296 297 300 301 298 299 296 291 287 288 288 289 291 292 296 301 314 322 323 325 325 327
309 308 308 312 310 314 310 302 293 301 298 302 302 300 297 298 296 297 296 295 296 293 291 292 294 301 307 299 297 294 292 287 285 284 288 288 288 299 311 316 321 325 325 325 326
308 308 309 313 313 312 307 298 295 296 301 303 301 299 298 301 299 299 298 299 299 301 294 293 294 304 305 305 298 293 291 291 287 284 285 288 293 299 305 316 319 320 323 324 325
307 312 313 316 315 310 304 298 302 303 303 302 296 299 297 299 300 298 299 303 303 305 300 298 294 299 304 305 305 299 295 290 287 284 284 287 289 292 301 304 312 317 320 322 324
310 310 316 316 312 306 300 300 306 307 305 302 298 299 297 298 297 298 300 305 306 305 304 299 296 299 299 297 296 298 296 291 288 285 284 282 292 298 300 304 307 314 318 319 324
305 307 316 310 303 299 301 304 307 306 307 305 305 302 300 301 298 299 300 302 308 304 300 300 294 291 297 299 300 298 295 292 291 291 285 286 289 302 304 310 314 315 319 327 330
302 303 313 308 296 296 298 302 304 306 304 305 304 304 303 299 297 299 303 307 309 306 299 304 292 287 291 295 298 296 296 297 292 290 289 289 293 304 315 320 318 317 327 330 336
305 299 303 302 298 299 296 297 300 308 304 305 303 304 301 298 298 297 300 305 306 305 320 306 291 291 288 293 294 294 296 295 293 290 289 291 294 302 314 319 322 323 324 322 328
302 299 301 297 300 299 294 299 301 301 303 302 301 301 299 292 293 294 297 298 302 308 300 297 293 292 294 296 296 295 296 296 293 294 293 296 295 307 314 317 318 317 319 320 321
300 300 301 299 301 298 297 297 300 301 300 298 298 301 299 292 293 293 293 292 295 298 294 292 290 291 291 294 294 294 296 295 296 297 296 296 301 313 318 319 316 317 317 317 317
305 305 304 300 301 300 300 300 304 302 302 304 302 299 297 299 300 299 298 297 298 294 291 291 288 286 285 290 293 290 293 295 296 301 299 299 306 316 316 318 316 315 317 317 318
Wind_Speed
16 16 16 17 18 17 17 17 17 16 16 16 17 17 18 19 18 6 6 12 11 24 12 8 11 3 2 2 2 2 3 2 4 6 4 10 7 8 8 11 6 9 6 5 12
16 16 17 17 17 18 18 17 17 16 16 17 17 17 16 16 4 5 3 22 26 24 13 16 9 5 1 1 2 3 1 2 2 3 5 10 9 13 8 14 9 9 6 11 13
17 18 17 17 18 17 18 18 16 16 16 17 18 18 16 10 4 6 12 19 26 19 10 9 8 1 1 3 4 3 3 3 6 5 5 8 6 14 12 12 11 18 14 16 14
18 18 18 18 18 18 17 18 18 16 15 16 17 18 18 1 2 3 12 22 20 7 11 7 4 3 3 4 4 4 3 1 5 9 5 2 7 11 13 13 17 16 23 18 16
18 18 18 19 19 19 18 18 17 16 14 14 16 16 6 4 8 3 11 19 14 4 9 9 7 5 5 3 2 1 2 7 5 8 7 9 4 9 13 2 14 17 18 18 16
19 18 18 19 19 19 19 18 16 16 15 12 13 12 2 3 2 12 11 13 6 5 7 8 8 7 4 1 3 3 6 1 5 6 6 3 0 3 5 11 15 21 18 17 18
18 19 19 19 18 19 19 18 18 15 14 11 10 3 1 13 4 9 13 10 6 6 6 5 4 1 4 2 1 3 7 7 3 3 2 5 4 3 2 16 19 18 16 16 15
19 18 18 18 18 19 20 20 19 15 12 10 5 1 8 4 6 7 7 4 7 11 6 5 6 6 4 1 5 5 4 6 3 7 5 8 9 5 9 10 15 17 14 16 16
19 18 18 18 18 19 19 21 20 15 8 4 2 2 10 4 2 9 9 7 6 6 7 7 2 4 3 3 3 6 3 1 6 4 4 2 7 4 11 13 12 15 15 16 16
18 18 17 17 17 18 19 19 7 3 3 5 3 2 6 2 3 3 4 5 4 1 2 3 6 4 3 4 5 5 3 5 6 7 5 4 8 4 9 17 17 14 15 17 17
19 17 17 16 15 14 11 2 5 4 1 7 5 3 6 6 4 2 4 6 3 5 2 3 5 4 9 7 7 5 4 7 8 7 5 10 7 13 15 14 17 17 16 17 19
19 18 16 14 13 10 2 2 4 2 7 8 5 6 7 4 5 5 2 4 3 4 1 7 4 8 5 6 7 4 7 8 9 4 2 9 16 13 14 20 24 21 19 20 18
19 18 16 14 12 1 1 6 2 1 2 8 5 5 6 8 7 9 7 3 3 2 3 6 9 1 4 3 4 4 8 7 7 5 3 3 8 1 1 7 18 21 24 21 22
20 18 16 18 3 3 5 4 8 3 6 6 3 6 4 5 5 5 6 6 1 9 7 6 5 2 1 5 7 6 11 16 10 3 5 4 7 7 3 5 14 18 21 20 20
20 17 13 8 2 1 5 8 4 6 6 1 3 1 1 7 3 7 4 5 8 7 7 9 3 3 3 7 7 12 2 10 11 4 5 4 2 9 1 9 12 17 19 20 20
20 15 10 1 1 7 8 6 5 7 4 4 3 2 2 1 3 6 1 4 3 5 2 6 2 4 7 5 8 2 3 8 6 5 2 6 5 8 6 13 11 8 15 17 18
20 12 4 3 4 3 4 5 7 6 4 8 4 2 3 4 3 2 3 4 2 4 5 6 5 5 2 4 2 7 8 4 4 4 6 1 3 13 5 7 15 20 15 12 17
23 7 9 6 2 4 5 6 9 2 3 5 4 3 2 2 3 2 4 5 2 5 4 3 8 6 7 2 4 4 9 8 4 3 6 0 3 8 6 9 11 2 9 10 9
19 1 2 4 7 2 6 7 4 3 4 6 5 9 9 6 2 5 5 4 3 1 5 3 5 6 1 3 1 2 1 3 9 3 2 4 8 10 12 10 5 8 7 8 10
2 3 4 2 6 6 7 3 4 5 1 5 5 4 6 8 6 4 2 1 1 5 3 1 4 1 7 7 8 7 3 3 5 2 3 5 2 6 13 19 7 2 7 6 8
3 4 3 4 3 7 3 5 5 5 2 5 1 5 2 5 4 4 3 3 2 3 7 3 4 9 2 3 3 7 7 6 6 4 5 0 5 9 9 15 12 3 7 6 9
2 4 5 3 5 1 1 3 5 3 5 2 5 3 3 3 7 5 3 2 8 1 3 2 6 2 8 1 5 3 2 4 6 4 2 5 8 8 13 8 10 9 9 9 7
3 2 4 4 4 5 8 5 2 5 6 4 6 4 4 4 5 3 5 6 11 6 3 0 3 4 12 8 5 6 5 3 4 4 1 5 7 5 13 15 10 10 12 10 10
4 4 7 7 1 1 4 5 7 6 6 4 3 5 5 6 6 2 6 5 7 5 8 8 4 7 7 8 3 5 5 3 4 4 3 5 6 8 11 9 10 10 10 8 10
5 1 3 4 5 4 2 5 5 6 5 9 7 6 1 5 3 2 2 5 6 7 6 5 2 5 6 7 3 4 5 5 1 4 4 7 7 5 2 5 5 5 4 6 9
4 4 5 1 4 4 7 7 6 6 4 4 4 3 5 2 3 3 1 1 5 4 4 3 3 1 5 4 1 4 7 5 3 4 6 5 4 3 1 1 0 2 1 4 4
3 2 4 4 5 3 2 3 5 5 2 2 3 1 3 6 8 8 7 6 8 7 4 2 4 3 6 5 6 6 6 4 2 1 2 4 6 4 2 5 5 4 3 1 5
Wind_Direction
337 335 333 331 328 328 328 329 331 334 333 329 325 323 318 324 315 162 229 195 177 156 145 131 179 154 113 22 283 164 50 261 230 154 159 145 155 133 126 132 196 186 139 180 150
335 332 330 328 326 326 325 327 329 332 331 328 324 320 321 330 311 259 249 147 150 156 149 159 166 183 176 197 244 125 66 277 264 183 159 171 168 149 143 153 234 198 99 131 150
332 330 330 327 325 325 323 324 326 329 329 326 322 319 322 324 324 263 139 156 153 160 140 159 133 95 277 219 205 209 180 296 5 2 112 170 209 169 139 185 204 177 158 150 161
332 331 328 324 322 320 320 319 321 326 326 323 321 321 320 281 226 300 135 152 152 170 153 169 144 189 256 236 172 249 220 176 12 35 29 221 160 185 176 206 188 174 163 154 165
331 327 323 320 319 318 317 315 317 319 320 319 319 325 344 10 255 159 132 148 156 160 179 182 165 186 221 207 113 212 284 129 61 55 26 311 207 196 218 241 144 154 164 163 167
330 325 322 320 317 315 314 312 313 311 311 314 316 319 352 276 156 146 131 150 181 188 196 200 207 199 130 134 179 271 239 155 104 104 89 6 82 190 196 137 144 158 173 175 175
326 323 321 319 316 312 309 304 303 304 303 305 308 298 99 235 120 154 148 178 181 202 209 189 219 156 113 46 298 247 342 351 84 74 118 188 355 354 150 152 153 167 175 182 188
332 328 324 320 315 310 305 302 299 297 291 290 282 246 242 251 149 185 201 225 208 211 266 139 174 103 91 341 20 1 71 353 147 153 219 118 285 139 125 154 163 166 182 189 192
331 328 325 320 316 311 303 299 296 290 269 210 134 168 265 311 196 241 154 218 170 198 247 258 139 114 101 118 17 22 283 204 292 181 135 101 263 183 154 164 189 178 181 199 198
324 324 323 319 316 312 307 295 284 295 172 183 256 7 280 268 292 242 203 169 239 341 3 85 63 85 57 96 232 245 241 266 254 211 182 183 231 205 179 189 183 193 188 201 206
322 320 325 318 314 320 339 46 20 8 167 206 195 245 269 280 277 270 144 114 108 62 215 20 82 214 220 197 219 199 210 229 268 171 137 193 222 228 202 206 187 194 204 199 210
324 322 320 315 313 321 287 39 196 213 305 232 225 263 262 112 334 301 87 115 134 207 63 17 232 231 220 221 234 209 225 235 276 131 253 186 227 232 191 208 203 188 197 207 216
324 322 320 318 317 264 286 244 257 183 91 296 192 200 230 138 203 253 136 109 138 169 174 167 247 58 182 211 176 238 207 224 212 333 304 120 311 208 2 192 209 197 199 200 208
325 324 324 326 340 303 280 279 318 145 58 287 270 275 165 176 272 213 164 132 88 204 157 227 277 227 316 264 168 246 209 243 242 109 250 90 268 290 176 222 207 196 202 201 204
325 324 325 328 271 300 290 306 297 57 59 253 223 132 88 139 294 5 192 61 180 187 104 255 266 297 244 231 154 231 164 208 232 206 62 293 95 272 271 223 222 208 204 201 201
323 318 323 225 245 245 299 322 47 41 9 347 338 1 58 341 296 321 145 74 146 124 349 248 239 194 224 251 198 281 119 32 44 85 77 233 151 281 204 224 227 201 213 197 196
320 304 253 309 236 297 329 39 40 79 331 329 291 225 190 267 338 143 344 54 111 48 358 342 300 285 230 352 354 75 57 344 350 13 216 30 64 239 292 243 218 212 201 177 193
324 299 208 229 295 22 53 55 60 289 278 289 327 27 17 279 269 69 63 9 24 92 96 104 346 5 326 280 256 224 153 151 210 210 252 52 248 262 279 280 230 328 151 164 179
322 298 261 266 189 109 71 50 207 257 256 341 356 50 343 350 1 79 36 26 271 340 115 111 291 312 187 279 37 348 278 170 101 7 45 287 310 321 347 332 110 118 130 184 184
358 2 279 144 164 65 70 238 251 236 11 53 58 73 20 332 49 55 12 289 20 26 140 269 357 262 294 23 6 83 197 25 13 132 277 316 281 256 321 315 314 143 190 200 198
41 41 283 219 69 42 109 237 277 278 31 71 35 42 63 343 32 27 338 304 13 48 59 106 81 300 22 79 317 350 10 45 111 106 150 318 279 227 274 281 280 239 287 248 188
57 53 307 16 38 33 267 233 271 307 33 78 105 96 76 20 21 53 75 323 331 144 65 316 132 281 250 352 326 5 70 115 106 288 79 137 275 293 327 352 61 36 30 32 20
62 256 300 98 65 332 311 300 298 354 16 29 36 34 26 43 96 35 359 325 13 51 53 123 46 6 344 2 360 35 342 82 102 78 236 110 267 348 2 25 17 55 26 10 42
58 20 331 40 54 90 328 325 327 15 70 48 30 72 68 32 10 71 354 339 357 40 44 79 102 147 178 224 229 312 320 66 97 83 221 225 279 312 5 9 17 42 360 349 34
25 0 172 338 333 351 317 342 358 13 25 27 26 31 26 37 39 62 343 331 329 3 36 78 169 194 228 231 219 255 275 334 6 202 172 252 210 275 359 313 350 8 352 31 47
75 39 355 291 304 359 0 343 360 340 45 2 74 339 14 130 173 279 127 193 241 334 59 21 267 264 272 261 2 254 284 294 248 231 243 207 243 233 137 232 226 142 111 60 36
328 14 104 301 349 57 313 308 340 322 334 63 284 76 324 228 202 215 202 203 215 197 151 160 148 89 274 345 335 334 249 191 252 280 226 177 234 173 205 205 200 187 193 229 306